Probability
3 13 39 48 52 52 52 45 48 55 58 68 65 58 58 61 58 58 52 58 55 52 52 52 55 58 58 55 55 58 55 65 68 65 65 58 65 61 61 61 58 32 61
3 13 52 58 61 61 65 55 48 55 58 68 74 71 65 68 65 58 65 58 58 55 55 55 55 58 55 55 58 58 55 58 61 65 55 55 55 55 55 39 58 58 65
6 23 29 55 68 68 65 61 65 58 61 65 71 71 65 68 77 68 68 74 68 61 55 55 55 55 58 61 61 58 55 52 52 42 52 23 19 55 61 52 55 52 55
10 23 35 58 68 61 61 61 65 65 65 61 68 71 68 68 68 68 71 68 61 45 45 52 52 52 48 61 55 52 55 52 35 39 26 10 10 35 48 52 52 55 52
13 26 48 61 65 61 68 65 68 68 61 65 65 61 61 68 58 65 65 61 58 42 42 45 42 35 35 39 42 45 48 42 32 29 10 16 26 39 45 42 39 39 35
13 29 39 65 68 74 68 68 71 68 68 58 58 65 58 52 52 58 55 52 35 42 45 45 42 35 39 42 45 42 39 26 26 6 6 10 23 48 45 39 35 26 35
16 23 39 74 71 61 71 68 71 77 81 68 65 58 65 55 52 52 48 42 32 32 32 32 26 39 35 42 42 39 32 23 13 3 0 13 39 52 48 39 39 39 32
16 19 32 68 74 77 71 81 81 81 77 74 71 68 65 65 65 52 42 48 42 42 35 29 42 39 39 32 29 32 29 19 10 0 16 23 35 45 48 42 45 39 29
10 16 32 32 61 81 77 77 81 77 71 74 68 71 71 61 58 55 61 42 42 39 32 39 39 35 35 39 32 32 16 26 16 10 3 13 32 42 42 29 35 35 23
16 23 29 32 39 42 55 81 77 74 74 74 65 61 52 48 48 42 52 58 52 45 39 42 39 35 39 42 35 23 13 16 10 3 10 10 32 32 35 29 32 29 26
16 26 23 26 26 35 39 52 68 77 74 77 71 55 48 35 29 39 26 61 58 52 48 52 42 48 45 45 35 39 23 10 6 10 13 16 29 26 29 32 26 19 16
23 19 23 29 32 29 23 52 45 35 55 61 65 55 45 52 52 23 39 39 52 61 65 52 48 45 29 26 29 32 19 13 10 10 10 23 29 29 29 26 23 29 29
19 29 35 32 39 29 32 42 45 55 65 52 61 61 68 39 35 29 39 42 55 42 39 42 39 32 32 35 32 19 16 10 16 10 6 35 26 26 26 35 29 29 32
19 23 32 29 39 42 39 35 35 35 42 42 58 45 42 58 48 42 52 32 39 45 39 39 48 42 32 26 23 16 16 23 19 23 29 39 32 39 35 42 39 35 26
19 23 32 35 45 52 55 48 35 35 35 42 58 55 45 39 48 42 48 55 23 26 35 48 39 45 45 35 29 26 29 26 19 23 26 35 29 39 35 35 29 29 32
19 23 35 42 48 68 65 58 45 26 65 35 42 42 48 42 58 48 55 65 42 39 42 48 45 45 32 32 19 26 32 26 26 23 29 29 35 35 39 29 29 32 29
23 32 42 45 52 55 58 52 35 39 42 42 52 48 45 45 58 52 35 39 52 48 52 52 35 32 35 32 29 26 29 35 32 29 23 29 42 35 42 39 39 35 35
35 48 48 29 52 61 71 74 45 48 52 48 55 55 48 48 52 68 48 52 61 45 42 52 39 35 39 35 42 39 29 42 32 29 29 35 39 39 39 42 39 42 42
45 65 65 52 55 65 71 74 65 74 61 48 48 48 52 52 58 58 61 65 48 45 29 23 45 39 48 45 39 45 32 32 26 16 23 29 35 39 32 48 45 39 35
48 65 68 68 74 74 71 77 71 71 61 52 55 68 58 55 61 55 58 65 52 45 48 68 65 65 61 55 29 26 23 23 32 29 26 23 32 29 35 35 48 32 32
52 68 71 77 81 87 77 68 71 68 68 58 55 65 65 61 65 74 52 61 55 55 61 48 52 55 52 61 45 29 32 29 35 32 32 23 23 26 39 42 42 39 39
61 68 74 81 77 77 87 81 77 77 68 61 58 74 65 61 61 48 68 55 68 68 58 58 65 55 52 55 52 42 29 26 29 13 26 29 32 29 32 32 35 42 35
55 65 55 81 81 81 77 81 74 81 77 58 58 71 55 61 58 61 61 61 71 58 61 61 58 55 52 55 52 32 48 32 26 16 23 26 29 39 39 35 32 39 39
58 58 74 90 90 90 87 77 77 77 55 61 65 65 65 65 61 58 61 65 68 58 61 55 48 55 58 48 48 52 48 39 35 35 29 26 26 35 35 19 23 32 35
55 61 68 90 87 87 87 87 87 65 65 55 61 68 65 58 52 45 55 65 61 65 65 61 61 48 52 48 52 52 52 52 45 32 26 35 23 19 26 23 19 26 26
58 65 65 87 90 81 81 71 81 74 71 61 71 65 55 52 52 45 52 61 61 55 52 55 58 55 48 52 42 42 42 45 39 39 35 29 29 23 19 23 16 19 19
Height
5872 5871 5871 5870 5870 5870 5870 5871 5871 5871 5872 5872 5873 5874 5874 5875 5876 5877 5878 5878 5879 5880 5881 5882 5883 5884 5885 5886 5887 5887 5888 5889 5889 5889 5890 5890 5890 5890 5891 5891 5892 5892 5892
5872 5872 5872 5871 5870 5871 5871 5872 5873 5873 5873 5874 5875 5876 5876 5876 5877 5878 5879 5880 5881 5882 5883 5883 5884 5885 5886 5887 5888 5888 5889 5890 5890 5890 5891 5891 5891 5892 5892 5893 5893 5893 5893
5873 5872 5872 5872 5872 5872 5873 5873 5874 5874 5875 5875 5876 5877 5877 5877 5878 5879 5880 5881 5882 5883 5884 5884 5885 5886 5887 5888 5889 5889 5890 5890 5891 5891 5892 5892 5892 5893 5893 5893 5894 5894 5894
5874 5873 5873 5873 5874 5874 5874 5874 5875 5875 5876 5877 5878 5878 5879 5879 5880 5881 5882 5883 5884 5884 5885 5886 5887 5888 5888 5889 5890 5890 5891 5891 5892 5892 5893 5893 5893 5894 5894 5894 5894 5894 5895
5874 5874 5874 5874 5875 5875 5876 5876 5876 5877 5877 5878 5879 5880 5880 5881 5882 5883 5883 5884 5885 5886 5886 5887 5888 5889 5889 5890 5890 5891 5892 5892 5893 5893 5893 5894 5894 5894 5895 5895 5895 5895 5895
5876 5875 5875 5875 5876 5877 5878 5878 5878 5878 5879 5880 5881 5881 5882 5883 5883 5884 5885 5885 5886 5887 5887 5888 5889 5889 5890 5891 5891 5892 5892 5893 5893 5894 5894 5894 5895 5895 5895 5895 5895 5895 5895
5878 5877 5877 5877 5878 5879 5879 5880 5880 5880 5881 5881 5882 5883 5883 5884 5885 5886 5886 5887 5887 5888 5888 5889 5890 5890 5891 5892 5892 5893 5893 5894 5894 5894 5894 5895 5895 5895 5896 5896 5896 5895 5895
5880 5880 5879 5880 5880 5881 5881 5881 5882 5882 5883 5883 5884 5884 5885 5885 5886 5887 5888 5888 5889 5889 5890 5890 5891 5891 5892 5892 5893 5894 5894 5895 5895 5895 5895 5895 5895 5896 5896 5896 5896 5895 5895
5882 5882 5882 5882 5882 5883 5883 5883 5884 5884 5884 5885 5885 5886 5886 5887 5887 5888 5889 5889 5890 5890 5891 5891 5891 5892 5892 5893 5894 5894 5895 5895 5895 5895 5895 5895 5896 5896 5896 5896 5895 5895 5895
5885 5885 5885 5885 5885 5885 5885 5886 5886 5886 5886 5887 5887 5887 5888 5888 5889 5889 5890 5890 5890 5891 5891 5892 5892 5893 5893 5894 5894 5895 5895 5895 5895 5895 5895 5896 5896 5896 5896 5895 5895 5895 5894
5888 5888 5888 5888 5888 5888 5888 5888 5888 5888 5888 5889 5889 5889 5890 5890 5890 5890 5891 5891 5892 5892 5892 5892 5893 5893 5893 5894 5895 5895 5895 5895 5895 5895 5896 5896 5896 5895 5895 5895 5894 5894 5893
5890 5890 5890 5890 5890 5890 5890 5890 5890 5890 5890 5891 5891 5891 5891 5891 5891 5892 5892 5892 5893 5893 5893 5893 5893 5893 5894 5894 5894 5895 5895 5895 5895 5895 5895 5895 5895 5895 5894 5894 5894 5893 5892
5893 5893 5893 5893 5893 5892 5892 5892 5892 5892 5892 5892 5892 5892 5893 5893 5893 5893 5893 5893 5893 5893 5893 5893 5894 5894 5894 5894 5894 5895 5895 5895 5895 5895 5895 5895 5894 5894 5893 5893 5892 5892 5891
5896 5895 5895 5895 5895 5895 5895 5894 5894 5894 5894 5894 5894 5894 5894 5894 5894 5894 5893 5893 5893 5893 5894 5894 5894 5894 5894 5894 5894 5894 5895 5894 5894 5894 5894 5894 5893 5893 5892 5891 5891 5890 5890
5898 5898 5898 5898 5898 5897 5897 5897 5896 5896 5896 5896 5896 5896 5896 5896 5895 5895 5894 5894 5894 5894 5894 5894 5894 5894 5894 5894 5894 5894 5894 5894 5893 5893 5893 5892 5892 5891 5891 5890 5889 5889 5888
5901 5900 5900 5900 5900 5899 5899 5899 5898 5898 5898 5898 5897 5897 5897 5897 5896 5896 5895 5895 5894 5894 5894 5894 5894 5894 5894 5894 5894 5893 5893 5893 5893 5892 5891 5891 5890 5890 5889 5889 5888 5887 5886
5903 5903 5902 5902 5902 5901 5901 5900 5900 5900 5900 5899 5899 5898 5898 5897 5897 5896 5896 5895 5894 5894 5894 5894 5894 5893 5893 5893 5893 5892 5892 5892 5891 5891 5890 5890 5889 5888 5888 5887 5886 5885 5884
5906 5905 5905 5904 5904 5903 5903 5902 5902 5901 5901 5900 5900 5899 5899 5898 5897 5897 5896 5896 5895 5894 5894 5894 5893 5893 5893 5892 5892 5891 5891 5890 5890 5889 5889 5888 5887 5886 5886 5885 5884 5883 5882
5909 5908 5907 5906 5906 5905 5904 5904 5903 5903 5902 5901 5901 5900 5899 5899 5898 5897 5897 5896 5895 5894 5894 5893 5893 5892 5892 5891 5891 5890 5890 5889 5888 5887 5887 5886 5885 5884 5884 5883 5882 5881 5880
5911 5910 5909 5908 5908 5907 5906 5905 5905 5904 5903 5902 5902 5901 5900 5899 5898 5897 5897 5896 5895 5894 5893 5893 5892 5891 5891 5890 5890 5889 5888 5887 5886 5885 5885 5884 5883 5882 5881 5880 5879 5878 5877
5913 5912 5911 5910 5910 5909 5908 5907 5906 5906 5905 5904 5902 5901 5900 5899 5898 5897 5897 5896 5895 5894 5893 5892 5891 5890 5890 5889 5888 5887 5886 5885 5884 5883 5882 5881 5881 5879 5878 5877 5876 5874 5873
5915 5914 5913 5912 5911 5910 5909 5908 5908 5907 5905 5904 5903 5902 5901 5900 5898 5897 5896 5895 5894 5893 5892 5891 5890 5890 5889 5888 5887 5885 5885 5884 5882 5881 5880 5879 5878 5877 5876 5874 5873 5871 5870
5917 5916 5915 5914 5913 5912 5911 5910 5909 5908 5906 5905 5904 5902 5901 5900 5898 5897 5896 5895 5894 5893 5892 5890 5889 5888 5887 5886 5885 5884 5882 5881 5880 5879 5877 5876 5875 5873 5872 5871 5869 5868 5866
5919 5918 5916 5916 5914 5913 5912 5911 5910 5909 5907 5906 5904 5903 5901 5900 5898 5897 5896 5895 5894 5892 5891 5889 5888 5887 5886 5885 5883 5882 5881 5879 5878 5877 5875 5873 5872 5870 5869 5867 5866 5865 5863
5920 5919 5918 5917 5916 5915 5913 5912 5911 5910 5908 5907 5905 5903 5902 5900 5898 5897 5895 5894 5893 5891 5890 5888 5887 5885 5884 5883 5882 5880 5879 5877 5876 5875 5873 5871 5869 5868 5866 5864 5862 5861 5859
5922 5921 5919 5918 5917 5916 5914 5913 5912 5910 5909 5907 5905 5904 5902 5900 5899 5897 5895 5894 5892 5891 5889 5887 5886 5884 5883 5881 5880 5878 5877 5876 5874 5872 5870 5868 5867 5865 5862 5861 5859 5857 5855
Wind_Speed
7 7 7 9 9 9 11 11 11 12 11 12 12 12 12 12 12 12 13 13 12 12 12 11 11 11 10 9 9 8 8 8 7 7 7 7 7 7 7 7 6 6 6
7 7 7 9 10 10 10 11 12 12 11 11 11 11 12 12 13 12 13 13 12 12 12 11 10 9 8 8 8 8 8 8 7 7 7 7 7 7 7 6 6 6 5
7 7 8 9 9 9 10 10 11 12 11 11 11 12 12 13 13 12 12 12 12 12 11 10 10 9 8 8 9 9 8 8 8 7 7 6 7 7 6 6 5 5 4
8 7 8 9 9 10 10 10 11 12 11 11 12 12 12 13 12 12 12 11 11 11 10 9 9 8 9 9 9 9 8 8 7 7 6 6 6 6 6 5 5 4 3
8 8 8 9 9 10 10 11 11 11 11 12 12 12 12 12 12 11 11 10 10 10 9 8 8 7 8 8 8 8 8 7 6 6 6 5 5 4 4 4 3 3 3
9 9 9 10 10 10 11 11 12 12 12 12 12 12 12 12 10 10 10 10 10 9 8 8 7 7 8 8 7 7 7 6 6 6 5 4 4 4 3 3 2 2 2
11 11 11 12 12 12 11 11 12 12 13 12 12 11 11 11 10 9 9 9 9 8 8 7 7 7 7 7 7 6 5 5 5 4 4 3 3 3 2 2 2 2 2
12 12 13 13 13 12 12 12 12 12 12 12 13 12 11 10 9 9 8 8 7 7 7 6 6 6 6 6 6 5 4 4 4 4 3 2 2 2 2 2 2 2 3
12 12 13 13 13 13 13 12 12 12 12 12 11 11 11 10 9 8 8 7 7 7 7 6 6 5 5 5 5 4 4 3 3 3 2 2 2 2 2 1 2 2 3
12 13 13 13 12 12 12 12 12 11 11 11 11 10 10 9 8 8 7 6 6 6 6 6 5 5 5 5 5 4 4 3 2 2 2 1 2 2 2 2 3 3 3
13 13 13 12 12 11 11 11 11 10 10 10 10 9 8 8 8 7 6 6 5 5 5 5 5 5 4 4 4 3 3 3 3 2 2 2 3 3 3 4 4 4 4
14 14 14 13 13 12 12 11 11 11 10 9 9 9 8 8 7 6 5 5 5 5 5 5 4 4 4 3 3 2 2 2 3 2 2 3 3 4 4 5 4 4 5
14 14 14 14 13 13 12 11 11 11 11 10 9 9 9 8 7 6 5 4 5 5 4 4 4 4 3 3 3 3 3 3 3 3 3 3 3 4 5 5 5 5 5
14 14 13 13 12 12 12 11 10 10 10 9 9 8 8 8 7 6 5 4 4 4 4 3 3 3 3 3 3 3 2 2 3 2 3 4 4 5 5 6 6 6 7
13 13 13 12 12 11 11 11 10 9 9 9 8 8 7 7 7 6 5 4 3 3 3 3 3 3 3 3 2 2 3 3 3 3 4 5 5 6 6 6 7 7 8
12 12 12 11 11 11 11 10 9 8 8 7 7 6 6 6 5 5 5 4 3 3 2 1 1 2 2 2 3 3 3 4 4 5 5 6 6 6 7 8 8 9 9
13 12 12 11 11 11 10 9 9 8 7 6 6 6 5 4 4 3 4 3 3 2 1 0 1 1 2 3 3 4 5 5 6 6 6 7 7 7 8 9 10 10 11
12 12 11 11 10 10 10 9 8 7 7 6 6 5 5 4 3 3 3 2 2 2 1 1 1 1 3 3 4 5 5 7 7 7 8 8 9 9 9 10 11 11 12
11 11 11 10 10 10 9 8 8 7 6 6 6 5 5 5 4 3 4 3 3 3 2 3 3 3 4 4 5 6 7 7 8 9 9 10 10 10 10 11 12 12 13
11 11 10 10 9 9 9 8 8 8 7 6 6 6 6 5 5 4 4 4 3 3 3 4 4 4 4 5 6 7 7 8 9 9 9 10 10 11 11 11 12 13 14
11 11 10 10 9 9 9 8 8 8 8 7 6 6 6 6 6 5 5 4 4 3 4 4 4 5 5 6 7 8 8 9 9 9 10 11 11 11 12 12 13 13 13
10 10 10 9 9 9 9 8 8 7 7 7 7 7 7 7 7 7 6 5 4 4 5 5 5 5 6 7 8 9 9 9 10 10 10 11 12 13 13 14 14 14 14
10 9 9 9 9 9 8 8 8 7 7 8 8 8 8 8 8 8 7 6 5 5 6 6 6 7 7 8 9 9 9 9 9 9 9 10 12 12 13 14 14 15 16
9 9 9 9 9 9 9 8 8 8 8 8 8 8 9 8 8 8 8 7 7 7 7 7 7 7 8 9 9 9 9 9 10 10 10 11 11 12 13 14 15 16 16
9 9 9 8 9 9 9 9 9 9 9 9 9 9 9 9 9 9 9 9 8 8 8 8 8 8 9 9 9 9 9 10 11 11 11 12 12 13 13 14 15 15 16
8 8 8 8 8 9 9 9 9 9 9 9 10 10 10 9 9 9 10 10 9 9 10 9 10 10 9 10 10 10 10 11 11 12 12 13 13 14 14 15 15 15 16
Wind_Direction
104 103 98 103 108 113 119 119 120 119 117 120 118 118 122 123 123 124 126 123 125 128 126 123 123 123 127 133 129 126 122 126 125 126 130 127 125 125 128 129 131 133 130
108 106 105 108 113 118 118 118 120 121 120 119 117 122 123 125 125 124 125 127 126 126 127 126 125 126 129 131 134 132 127 126 126 127 128 127 128 129 131 133 133 133 132
106 108 107 110 107 111 116 121 123 125 123 122 121 123 124 124 126 125 127 126 124 124 125 123 123 128 132 136 138 136 129 125 125 124 126 131 131 130 129 131 136 138 141
101 107 107 107 105 107 113 116 121 124 124 122 123 124 125 123 127 128 127 127 127 126 126 124 125 133 136 140 137 134 128 127 126 124 125 126 127 127 130 136 140 142 148
98 100 106 112 112 108 112 118 119 123 125 127 127 126 125 125 127 130 129 131 131 128 129 130 128 133 139 139 134 132 129 128 127 127 126 130 127 129 135 139 145 150 159
97 97 101 108 113 113 114 121 118 124 124 128 130 129 129 126 126 128 129 132 132 130 131 133 132 136 138 139 138 136 133 132 132 131 130 135 140 143 148 153 156 168 174
97 98 104 109 113 115 118 120 120 123 126 128 127 127 129 130 129 125 124 127 130 132 130 132 135 138 135 135 139 139 140 138 137 136 135 140 149 155 155 158 176 204 204
100 100 103 107 109 111 115 116 119 125 127 126 127 127 123 120 124 125 128 131 132 133 133 133 133 133 133 136 140 145 148 151 150 150 150 153 152 152 161 185 204 217 216
100 102 104 106 106 106 107 111 111 116 122 120 121 122 123 122 120 124 128 129 130 130 132 137 134 134 138 141 146 155 160 169 169 169 169 170 176 176 192 211 230 246 242
98 99 103 103 104 105 105 107 110 112 115 114 115 120 122 121 120 120 122 120 117 118 122 134 136 138 143 148 154 158 164 174 173 176 189 209 207 215 239 256 264 265 259
99 100 101 101 101 101 103 104 104 106 110 111 113 115 118 117 113 113 116 115 116 118 119 125 124 130 141 149 155 162 169 180 184 194 219 241 241 246 256 266 270 268 259
100 100 101 100 99 99 99 99 99 101 104 107 108 108 109 111 110 112 118 118 119 121 120 123 127 130 139 149 158 167 173 177 191 211 238 255 262 264 265 267 269 271 262
99 100 99 99 99 98 97 96 97 96 97 97 99 101 103 106 107 112 117 120 120 122 122 125 130 136 147 156 169 175 182 191 213 237 258 268 275 278 272 269 269 270 267
97 96 97 99 99 98 97 95 95 94 93 92 92 95 96 100 101 101 104 108 112 120 126 129 137 148 159 171 186 194 199 213 231 244 266 269 272 279 281 278 276 275 274
96 96 97 98 97 94 93 90 90 93 94 93 93 93 93 96 92 91 88 95 100 118 122 124 129 154 172 186 207 219 233 251 248 258 270 277 279 276 282 284 284 282 279
92 93 93 94 93 93 93 88 89 90 91 90 89 86 89 90 83 74 67 74 77 97 114 130 154 178 200 213 237 250 256 263 267 268 271 276 279 279 279 281 280 282 282
86 87 87 89 90 89 89 86 83 85 83 81 77 77 81 81 78 65 55 54 49 58 63 293 259 248 257 262 260 264 267 274 274 273 277 276 275 278 283 282 283 286 284
81 81 81 82 83 85 85 83 79 77 75 70 67 64 63 62 56 46 32 27 13 15 351 326 307 281 272 269 272 281 276 277 276 278 279 278 276 279 284 285 287 289 287
76 76 76 77 76 77 78 77 74 70 67 66 61 53 47 37 29 16 7 12 354 342 339 333 310 298 283 280 284 285 278 279 281 283 279 278 279 281 283 285 289 290 288
71 70 71 72 72 73 71 68 67 62 58 56 51 41 34 29 22 9 358 357 352 328 320 332 332 313 298 288 288 293 295 286 283 283 281 281 284 285 287 288 289 290 289
66 66 67 69 70 69 65 62 59 55 52 47 43 32 20 16 14 6 354 351 342 327 326 325 322 315 309 303 299 299 302 300 296 287 283 283 286 289 291 291 291 290 291
63 62 63 64 64 63 59 56 53 48 41 38 34 28 18 14 9 6 5 0 352 337 331 333 331 319 309 307 305 303 302 303 300 297 293 287 285 288 290 291 290 291 290
60 58 59 60 57 54 51 50 48 44 37 31 25 21 17 13 11 14 14 4 352 337 331 329 326 325 320 314 310 306 301 300 303 303 303 299 294 292 290 289 291 291 291
55 56 57 57 53 50 50 46 42 38 34 29 26 23 19 17 16 17 12 5 356 347 334 326 320 316 314 312 312 308 305 306 306 306 303 303 300 298 296 293 291 290 290
50 52 54 53 49 46 46 43 40 35 30 26 25 23 19 17 16 14 10 6 357 352 345 335 323 316 313 311 313 312 311 310 310 311 310 307 304 302 302 300 297 292 292
47 45 46 45 43 42 40 38 36 33 28 24 21 19 17 18 16 13 9 4 358 351 348 342 333 320 316 312 312 312 312 313 314 314 313 313 311 305 303 301 301 299 295